Showing default

OPS 9312 (IDSCS 2), 2216

Orbit data source: Space-Track

OPS 9312 (IDSCS 2), 2216 is a payload satellite owned by USAF SSD (US) in GEO that was launched on Thu, 16 Jun 1966 UTC via a TITAN IIIC launch vehicle from the Air Force Eastern Test Range (AFETR). Payload-class satellites include a variety of spacecraft equipped with specific instruments for various scientific and technological missions. These include communications satellites like Starlink; space stations such as the ISS; scientific satellites like the Hubble; Earth observation satellites from companies like Planet Labs, Umbra, and HawkEye 360; GPS; miniature CubeSats for education and research; and military/defense satellites.

Not visible in the next 10 days
Identifier
2216, 1966-053C
Orbit
GEO
Country
Flag of USUS
Related business
Manufacturer
Philco-Ford WDL
Mission
Non-operational spacecraft
Bus & Motor
IDCSP, Unknown motor
Mass
45 kg wet, 45 kg dry
Launch date (UTC)
1966-06-16 (60 years ago)
Launch vehicle
TITAN IIIC
Launch site
Air Force Eastern Test Range (AFETR)
Object type
Payload
Rocket body
Debris
Shape & HBR
ICO POLY, 0.5 m
Radar Cross Section
Medium (>0.1 m² and <1 m²)

Expand to show TLE details & history
Last TLE update: 22 hours ago

TLE from 22 hours ago
0 OPS 9312 (IDSCS 2)
1 02216U 66053C   26253.45641596 -.00000144  00000-0  00000-0 0  9999
2 02216   8.8119  43.0057 0032830 219.7442 328.7929  1.07851185 50184
Epoch: 2026-09-10T10:57Z
TLE epoch observation values (Epoch: 2026-09-10T10:57:14.338Z)
Latitude
-1.25681°
Longitude
77.4463°
Altitude
33,674.914 km
Speed
3.159 km/s
True Right ascension
15h 24m 59s
True Declination
-1° 15' 20"
Sunlit
Object was in daylight at epoch
Visualization orbit readout
Latitude
Unknown
Longitude
Unknown
Altitude
Unknown
Speed
Unknown
Apparent Right ascension
Unknown
Apparent Declination
Unknown
Sunlit
N/A
Visualization observer readout
Local Sidereal Time
01:16:36
Azimuth
Unknown
Elevation
Unknown
Doppler factor
Unknown
Orbital elements
Apogee altitude
33,920.193 km
Perigee altitude
33,656.46 km
Semi-major axis
40,166.464 km
Eccentricity
0.00328
Inclination
8.8119°
RAAN
43.0057°
Arg. of periapsis
219.7442°
True anomaly
328.59729°
Mean anomaly
328.7929°
Eccentric anomaly
328.69516°
Mean motion
0.26962 °/min
Orbital period
1,335.23 mins
BSTAR
0
Loading maneuver chart data...
Computing Atmospheric mass density...
Loading historical data...
Loading historical data...
Loading historical data...
Loading historical data...
Loading historical data...
Loading historical data...
Loading historical data...

Documentation

Showing up to 5 results
|